This is the latest recevied weather packets stored in our database for station/object KNEW. If no packets are shown the sender has not sent any weather packets the latest 10 day(s).
| Time | Temp. | Humidity | Pressure | Rain* | Wind** | Luminosity | Snow |
|---|---|---|---|---|---|---|---|
| 1777395815 | 28.89° C | 66% | 1019 hPa | - | - | - | - |
| 1777395218 | 27.78° C | 65% | 1019 hPa | - | - | - | - |
| 1777394618 | 27.78° C | 65% | 1019 hPa | - | - | - | - |
| 1777394016 | 27.78° C | 65% | 1019 hPa | - | - | - | - |
| 1777393416 | 27.78° C | 69% | 1019.3 hPa | - | - | - | - |
| 1777392816 | 27.78° C | 65% | 1019.3 hPa | - | - | - | - |
| 1777392214 | 27.78° C | 65% | 1019.3 hPa | - | - | - | - |
| 1777391620 | 26.67° C | 69% | 1018.3 hPa | - | - | - | - |
| 1777391012 | 26.67° C | 69% | 1018.3 hPa | - | - | - | - |
| 1777390417 | 26.67° C | 69% | 1018.3 hPa | - | - | - | - |
| 1777389815 | 26.67° C | 69% | 1018.3 hPa | - | - | - | - |
| 1777389216 | 26.67° C | 69% | 1018.3 hPa | - | - | - | - |
| 1777388616 | 26.67° C | 69% | 1018.3 hPa | - | - | - | - |
| 1777388017 | 26.67° C | 69% | 1018.3 hPa | - | - | - | - |
| 1777387415 | 25.56° C | 78% | 1018.6 hPa | - | - | - | - |
| 1777386817 | 25.56° C | 78% | 1018.6 hPa | - | - | - | - |
| 1777386218 | 25.56° C | 78% | 1018.6 hPa | - | - | - | - |
| 1777385618 | 25.56° C | 78% | 1018.6 hPa | - | - | - | - |
| 1777385016 | 25.56° C | 78% | 1019 hPa | - | - | - | - |
| 1777384420 | 23.89° C | 88% | 1018.6 hPa | - | - | - | - |
| 1777383819 | 23.89° C | 88% | 1018.6 hPa | - | - | - | - |
| 1777383218 | 23.89° C | 88% | 1018.6 hPa | - | - | - | - |
| 1777382617 | 23.89° C | 88% | 1018.6 hPa | - | - | - | - |
| 1777382015 | 23.89° C | 88% | 1018.6 hPa | - | - | - | - |
| 1777381417 | 23.89° C | 88% | 1018.6 hPa | - | - | - | - |
* Rain since midnight (hover to see other rain measurements)
** Current wind speed in m/s (hover to see current wind gust speed)